Language: 


Des rapports , des résumés tant et plus, au choix de chacun....


Données statistiques de la station
Quotidien Rapport Décembre 3, 2017 Unités:  Métrique    Anglais   les deux
« Précédent Jour
Suivant Jour »
Quotidien Hebdomadaire Mensuel Annuel Actuel
  Haut: Bas: Moyen:
Température: 6.5 °C -1.1 °C 2.8 °C
Pt de rosée: 7.0 °C -2.0 °C 2.7 °C
Humidité: 98 % 98 % 98 %
Vitesse du vent: 9.7 km/h 0.0 km/h 2 km/h
Rafales: 368.5 km/h - -
Vent:- - SSW
Pression: 1028.0 hPa 1021.9 hPa -
Précipitation: 2.8 mm    
Historical Graphs
 
 
Données statistiques pour Décembre 3, 2017
Heure Température Point de rosée Pression Vent Vitesse du vent Refales Humidité Pluie (taux horaire)
00:00 -1.1 °C -2.0 °C 1026.0 hPa SSW 4.7 km/h 6.9 km/h 98 % 0.0 mm
00:05 -1.1 °C -2.0 °C 1026.0 hPa Calm   6.9 km/h 98 % 0.0 mm
00:10 -1.1 °C -2.0 °C 1026.0 hPa Calm   1.4 km/h 98 % 0.0 mm
00:15 -1.1 °C -2.0 °C 1026.0 hPa Calm     98 % 0.0 mm
00:30 -1.1 °C -2.0 °C 1026.0 hPa Calm   9.0 km/h 98 % 0.0 mm
00:35 -1.1 °C -2.0 °C 1026.0 hPa Calm   6.1 km/h 98 % 0.0 mm
00:40 -1.1 °C -2.0 °C 1026.0 hPa Calm   1.4 km/h 98 % 0.0 mm
00:42 -1.1 °C -2.0 °C 1026.0 hPa Calm   1.4 km/h 98 % 0.0 mm
00:47 -1.1 °C -2.0 °C 1026.0 hPa SSW 6.1 km/h 7.6 km/h 98 % 0.0 mm
00:52 -1.1 °C -2.0 °C 1026.0 hPa Calm   7.6 km/h 98 % 0.0 mm
00:57 -1.0 °C -2.0 °C 1026.0 hPa Calm   6.1 km/h 98 % 0.0 mm
01:02 -1.0 °C -2.0 °C 1026.0 hPa Calm   6.1 km/h 98 % 0.0 mm
01:07 -1.0 °C -2.0 °C 1026.0 hPa Calm   5.8 km/h 98 % 0.0 mm
01:12 -1.0 °C -2.0 °C 1024.9 hPa Calm   3.5 km/h 98 % 0.0 mm
01:17 -1.0 °C -2.0 °C 1024.9 hPa South 5.0 km/h 5.5 km/h 98 % 0.0 mm
01:22 -1.0 °C -2.0 °C 1024.9 hPa Calm   5.5 km/h 98 % 0.0 mm
01:27 -1.0 °C -2.0 °C 1024.9 hPa SSW 3.5 km/h 5.0 km/h 98 % 0.0 mm
01:38 -1.0 °C -2.0 °C 1024.9 hPa Calm   6.4 km/h 98 % 0.0 mm
01:43 -0.9 °C -2.0 °C 1024.9 hPa South 6.1 km/h 6.4 km/h 98 % 0.0 mm
01:58 -0.9 °C -2.0 °C 1024.9 hPa SSW 4.3 km/h 6.9 km/h 98 % 0.0 mm
02:03 -0.9 °C -2.0 °C 1024.9 hPa Calm   7.6 km/h 98 % 0.0 mm
02:08 -0.8 °C -2.0 °C 1024.9 hPa Calm   7.6 km/h 98 % 0.0 mm
02:13 -0.8 °C -2.0 °C 1024.9 hPa SSW 4.3 km/h 6.1 km/h 98 % 0.0 mm
02:18 -0.8 °C -2.0 °C 1024.9 hPa Calm   9.3 km/h 98 % 0.0 mm
02:23 -0.8 °C -2.0 °C 1024.9 hPa South 5.5 km/h 10.1 km/h 98 % 0.0 mm
02:28 -0.8 °C -2.0 °C 1024.9 hPa SSW 5.5 km/h 10.1 km/h 98 % 0.0 mm
02:38 -0.7 °C -1.0 °C 1024.9 hPa SSW 5.5 km/h 9.3 km/h 98 % 0.0 mm
02:43 -0.7 °C -1.0 °C 1024.9 hPa SSW 8.7 km/h 9.3 km/h 98 % 0.0 mm
03:04 -0.5 °C -1.0 °C 1024.9 hPa South 5.0 km/h 7.6 km/h 98 % 0.0 mm
03:09 -0.5 °C -1.0 °C 1024.9 hPa SSW 4.7 km/h 8.7 km/h 98 % 0.0 mm
03:29 -0.5 °C -1.0 °C 1024.9 hPa SSW 5.5 km/h 9.3 km/h 98 % 0.0 mm
03:49 -0.4 °C -1.0 °C 1024.9 hPa SSW 5.5 km/h 11.9 km/h 98 % 0.0 mm
03:54 -0.3 °C -1.0 °C 1024.9 hPa Calm   11.9 km/h 98 % 0.0 mm
03:59 -0.3 °C -1.0 °C 1024.9 hPa SSW 2.6 km/h 10.1 km/h 98 % 0.0 mm
04:02 -0.3 °C -1.0 °C 1024.9 hPa SSW 7.9 km/h 10.1 km/h 98 % 0.0 mm
04:07 -0.3 °C -1.0 °C 1024.9 hPa South 7.6 km/h 10.1 km/h 98 % 0.0 mm
04:12 -0.2 °C -1.0 °C 1023.9 hPa SSW 6.1 km/h 7.9 km/h 98 % 0.0 mm
04:17 -0.2 °C -1.0 °C 1023.9 hPa SSW 4.3 km/h 6.9 km/h 98 % 0.0 mm
04:22 -0.2 °C -1.0 °C 1023.9 hPa South 6.4 km/h 10.1 km/h 98 % 0.0 mm
04:27 -0.1 °C -1.0 °C 1023.9 hPa SSW 8.7 km/h 10.1 km/h 98 % 0.0 mm
04:32 -0.1 °C -1.0 °C 1023.9 hPa SSE 4.3 km/h 10.1 km/h 98 % 0.0 mm
04:33 -0.1 °C -1.0 °C 1023.9 hPa South 6.4 km/h 10.1 km/h 98 % 0.0 mm
04:38 -0.1 °C -1.0 °C 1023.9 hPa South 6.1 km/h 9.3 km/h 98 % 0.0 mm
04:43 -0.1 °C -1.0 °C 1023.9 hPa South 5.5 km/h 9.3 km/h 98 % 0.0 mm
04:48 0.0 °C -1.0 °C 1023.9 hPa SSW 5.0 km/h 8.7 km/h 98 % 0.0 mm
04:53 0.0 °C -1.0 °C 1023.9 hPa Calm   8.7 km/h 98 % 0.0 mm
04:58 0.0 °C -1.0 °C 1022.9 hPa SSW 9.7 km/h 11.1 km/h 98 % 0.0 mm
05:08 0.1 °C 0.0 °C 1022.9 hPa Calm   10.1 km/h 98 % 0.0 mm
05:18 0.1 °C 0.0 °C 1023.9 hPa Calm   7.9 km/h 98 % 0.0 mm
05:28 0.2 °C 0.0 °C 1022.9 hPa South 6.9 km/h 7.9 km/h 98 % 0.0 mm
05:33 0.2 °C 0.0 °C 1022.9 hPa Calm   7.9 km/h 98 % 0.0 mm
05:38 0.3 °C 1.0 °C 1022.9 hPa Calm   4.3 km/h 98 % 0.0 mm
05:43 0.3 °C 1.0 °C 1022.9 hPa Calm   5.0 km/h 98 % 0.0 mm
05:53 0.3 °C 1.0 °C 1022.9 hPa Calm   6.4 km/h 98 % 0.0 mm
05:58 0.4 °C 1.0 °C 1022.9 hPa Calm     98 % 0.0 mm
06:03 0.4 °C 1.0 °C 1022.9 hPa South 5.8 km/h 6.9 km/h 98 % 0.0 mm
06:13 0.4 °C 1.0 °C 1022.9 hPa South 5.8 km/h 6.9 km/h 98 % 0.0 mm
06:19 0.4 °C 1.0 °C 1022.9 hPa Calm   6.4 km/h 98 % 0.0 mm
06:29 0.5 °C 1.0 °C 1022.9 hPa South 6.4 km/h 9.0 km/h 98 % 0.0 mm
06:34 0.5 °C 1.0 °C 1022.9 hPa South 2.1 km/h 8.7 km/h 98 % 0.0 mm
06:39 0.5 °C 1.0 °C 1022.9 hPa SSW 6.1 km/h 8.7 km/h 98 % 0.0 mm
06:44 0.5 °C 1.0 °C 1022.9 hPa South 7.9 km/h 9.7 km/h 98 % 0.0 mm
06:49 0.6 °C 1.0 °C 1022.9 hPa SSW 5.5 km/h 9.7 km/h 98 % 0.0 mm
06:54 0.6 °C 1.0 °C 1022.9 hPa Calm   8.7 km/h 98 % 0.0 mm
06:59 0.6 °C 1.0 °C 1022.9 hPa Calm   9.0 km/h 98 % 0.0 mm
07:09 0.6 °C 1.0 °C 1022.9 hPa South 6.9 km/h 8.7 km/h 98 % 0.0 mm
07:24 0.6 °C 1.0 °C 1022.9 hPa South 9.0 km/h 9.7 km/h 98 % 0.0 mm
07:34 0.6 °C 1.0 °C 1021.9 hPa South 6.9 km/h 10.5 km/h 98 % 0.0 mm
07:39 0.7 °C 1.0 °C 1021.9 hPa South 6.4 km/h 9.7 km/h 98 % 0.0 mm
07:44 0.7 °C 1.0 °C 1022.9 hPa South 6.9 km/h 9.0 km/h 98 % 0.0 mm
07:54 0.7 °C 1.0 °C 1022.9 hPa SSW 3.5 km/h 9.0 km/h 98 % 0.0 mm
07:59 0.7 °C 1.0 °C 1022.9 hPa Calm   9.7 km/h 98 % 0.0 mm
08:04 0.7 °C 1.0 °C 1022.9 hPa Calm   9.7 km/h 98 % 0.0 mm
08:10 0.7 °C 1.0 °C 1022.9 hPa Calm     98 % 0.0 mm
08:22 0.7 °C 1.0 °C 1022.9 hPa Calm     98 % 0.0 mm
08:27 0.7 °C 1.0 °C 1023.9 hPa Calm     98 % 0.0 mm
08:38 0.8 °C 1.0 °C 1023.9 hPa South 2.1 km/h 10.5 km/h 98 % 0.0 mm
08:39 0.8 °C 1.0 °C 1023.9 hPa SSW 7.9 km/h 10.5 km/h 98 % 0.0 mm
08:44 0.8 °C 1.0 °C 1023.9 hPa SSW 5.0 km/h 7.9 km/h 98 % 0.0 mm
08:49 0.8 °C 1.0 °C 1023.9 hPa South 4.0 km/h 7.9 km/h 98 % 0.0 mm
08:54 0.9 °C 1.0 °C 1023.9 hPa South 9.0 km/h 9.0 km/h 98 % 0.0 mm
08:59 0.9 °C 1.0 °C 1023.9 hPa South 5.5 km/h 10.5 km/h 98 % 0.0 mm
09:04 0.9 °C 1.0 °C 1023.9 hPa SSW 6.4 km/h 10.5 km/h 98 % 0.0 mm
09:09 0.9 °C 1.0 °C 1023.9 hPa Calm   6.9 km/h 98 % 0.0 mm
09:14 0.9 °C 1.0 °C 1023.9 hPa Calm   6.9 km/h 98 % 0.0 mm
09:19 0.9 °C 1.0 °C 1023.9 hPa Calm   6.4 km/h 98 % 0.0 mm
09:34 1.0 °C 1.0 °C 1024.9 hPa SSW 6.1 km/h 9.3 km/h 98 % 0.0 mm
09:39 1.0 °C 1.0 °C 1024.9 hPa Calm   8.7 km/h 98 % 0.0 mm
09:44 1.1 °C 1.0 °C 1024.9 hPa SSW 4.3 km/h 9.0 km/h 98 % 0.0 mm
09:55 1.1 °C 1.0 °C 1024.9 hPa South 4.7 km/h 9.7 km/h 98 % 0.3 mm
10:00 1.1 °C 1.0 °C 1024.9 hPa South 9.0 km/h 11.1 km/h 98 % 0.3 mm
10:05 1.1 °C 1.0 °C 1024.9 hPa SSW 4.3 km/h 11.1 km/h 98 % 0.3 mm
10:10 1.2 °C 1.0 °C 1024.9 hPa SSW 5.8 km/h 9.3 km/h 98 % 0.3 mm
10:30 1.3 °C 1.0 °C 1024.9 hPa SSW 3.5 km/h 9.3 km/h 98 % 0.3 mm
10:40 1.5 °C 2.0 °C 1024.9 hPa SSW 6.1 km/h 7.9 km/h 98 % 0.3 mm
10:45 1.6 °C 2.0 °C 1024.9 hPa Calm   7.9 km/h 98 % 0.3 mm
10:50 1.7 °C 2.0 °C 1024.9 hPa South 6.4 km/h 7.6 km/h 98 % 0.3 mm
10:55 1.7 °C 2.0 °C 1024.9 hPa Calm   7.6 km/h 98 % 0.0 mm
11:00 1.7 °C 2.0 °C 1024.9 hPa South 4.7 km/h 6.9 km/h 98 % 0.0 mm
11:05 1.8 °C 2.0 °C 1024.9 hPa Calm   6.9 km/h 98 % 0.0 mm
11:10 1.8 °C 2.0 °C 1024.9 hPa SW 4.3 km/h 6.9 km/h 98 % 0.0 mm
11:15 1.9 °C 2.0 °C 1024.9 hPa SSW 5.8 km/h 9.0 km/h 98 % 0.0 mm
11:20 2.0 °C 2.0 °C 1024.9 hPa SSW 6.4 km/h 9.0 km/h 98 % 0.0 mm
11:25 2.1 °C 2.0 °C 1024.9 hPa Calm   7.9 km/h 98 % 0.0 mm
11:30 2.1 °C 2.0 °C 1024.9 hPa South 7.9 km/h 7.9 km/h 98 % 0.0 mm
11:35 2.1 °C 2.0 °C 1024.9 hPa South 5.0 km/h 10.5 km/h 98 % 0.0 mm
11:41 2.1 °C 2.0 °C 1024.9 hPa SW 5.5 km/h 10.5 km/h 98 % 0.0 mm
11:42 2.2 °C 2.0 °C 1024.9 hPa SSW 5.8 km/h 8.7 km/h 98 % 0.0 mm
11:47 2.2 °C 2.0 °C 1024.9 hPa SSW 9.0 km/h 9.0 km/h 98 % 0.0 mm
11:52 2.2 °C 2.0 °C 1024.9 hPa SSW 7.2 km/h 9.3 km/h 98 % 0.0 mm
11:57 2.3 °C 3.0 °C 1024.9 hPa Calm   9.3 km/h 98 % 0.0 mm
12:02 2.4 °C 3.0 °C 1024.9 hPa SSW 6.9 km/h 9.0 km/h 98 % 0.0 mm
12:07 2.4 °C 3.0 °C 1024.9 hPa SSW 3.5 km/h 9.7 km/h 98 % 0.0 mm
12:12 2.4 °C 3.0 °C 1026.0 hPa Calm   10.1 km/h 98 % 0.0 mm
12:17 2.5 °C 3.0 °C 1026.0 hPa SW 7.9 km/h 10.1 km/h 98 % 0.0 mm
12:22 2.6 °C 3.0 °C 1026.0 hPa South 6.9 km/h 8.7 km/h 98 % 0.0 mm
12:28 2.6 °C 3.0 °C 1024.9 hPa SSW 5.0 km/h 7.9 km/h 98 % 0.0 mm
12:33 2.7 °C 3.0 °C 1024.9 hPa Calm   7.6 km/h 98 % 0.0 mm
12:38 2.8 °C 3.0 °C 1024.9 hPa Calm   6.1 km/h 98 % 0.0 mm
12:43 3.0 °C 3.0 °C 1024.9 hPa SW 6.1 km/h 7.6 km/h 98 % 0.0 mm
12:48 3.0 °C 3.0 °C 1024.9 hPa Calm   7.6 km/h 98 % 0.0 mm
12:53 3.1 °C 3.0 °C 1024.9 hPa SW 4.3 km/h 6.4 km/h 98 % 0.0 mm
12:54 3.1 °C 3.0 °C 1024.9 hPa SW 6.1 km/h 6.4 km/h 98 % 0.0 mm
12:59 3.2 °C 3.0 °C 1024.9 hPa SSW 1.4 km/h 6.1 km/h 98 % 0.0 mm
13:04 3.2 °C 3.0 °C 1024.9 hPa SW 4.0 km/h 6.4 km/h 98 % 0.0 mm
13:09 3.3 °C 3.0 °C 1024.9 hPa WSW 5.0 km/h 6.9 km/h 98 % 0.0 mm
13:14 3.4 °C 3.0 °C 1024.9 hPa SSW 4.7 km/h 6.9 km/h 98 % 0.0 mm
13:19 3.4 °C 3.0 °C 1024.9 hPa Calm   7.6 km/h 98 % 0.0 mm
13:24 3.4 °C 3.0 °C 1024.9 hPa Calm   7.6 km/h 98 % 0.0 mm
13:29 3.5 °C 4.0 °C 1024.9 hPa Calm   5.8 km/h 98 % 0.0 mm
13:34 3.5 °C 4.0 °C 1024.9 hPa Calm   4.3 km/h 98 % 0.0 mm
13:39 3.6 °C 4.0 °C 1024.9 hPa Calm   4.3 km/h 98 % 0.0 mm
13:44 3.6 °C 4.0 °C 1024.9 hPa SSW 4.0 km/h 4.0 km/h 98 % 0.0 mm
13:49 3.6 °C 4.0 °C 1024.9 hPa SW 4.0 km/h 4.3 km/h 98 % 0.0 mm
13:54 3.6 °C 4.0 °C 1024.9 hPa Calm   4.3 km/h 98 % 0.0 mm
13:59 3.7 °C 4.0 °C 1024.9 hPa Calm   4.3 km/h 98 % 0.0 mm
14:04 3.8 °C 4.0 °C 1024.9 hPa Calm   4.7 km/h 98 % 0.0 mm
14:09 3.9 °C 4.0 °C 1024.9 hPa SSW 2.6 km/h 6.1 km/h 98 % 0.0 mm
14:14 4.0 °C 4.0 °C 1024.9 hPa Calm   6.1 km/h 98 % 0.0 mm
14:19 4.1 °C 4.0 °C 1024.9 hPa Calm   4.7 km/h 98 % 0.0 mm
14:24 4.1 °C 4.0 °C 1024.9 hPa Calm   5.5 km/h 98 % 0.0 mm
14:29 4.1 °C 4.0 °C 1024.9 hPa SW 2.6 km/h 5.5 km/h 98 % 0.0 mm
14:34 4.1 °C 4.0 °C 1024.9 hPa South 3.5 km/h 4.3 km/h 98 % 0.3 mm
14:39 4.1 °C 4.0 °C 1024.9 hPa Calm   5.8 km/h 98 % 0.3 mm
14:44 4.0 °C 4.0 °C 1023.9 hPa South 2.1 km/h 5.8 km/h 98 % 0.3 mm
14:49 4.0 °C 4.0 °C 1023.9 hPa Calm   5.0 km/h 98 % 0.3 mm
14:51 4.0 °C 4.0 °C 1023.9 hPa SSW 1.4 km/h 5.0 km/h 98 % 0.3 mm
14:56 4.0 °C 4.0 °C 1024.9 hPa Calm   6.1 km/h 98 % 0.3 mm
15:02 4.0 °C 4.0 °C 1024.9 hPa Calm   6.1 km/h 98 % 0.3 mm
15:07 4.0 °C 4.0 °C 1024.9 hPa South 2.6 km/h 3.5 km/h 98 % 0.3 mm
15:12 4.1 °C 4.0 °C 1024.9 hPa Calm   3.5 km/h 98 % 0.3 mm
15:17 4.1 °C 4.0 °C 1024.9 hPa Calm   3.5 km/h 98 % 0.3 mm
15:22 4.2 °C 4.0 °C 1024.9 hPa Calm   1.4 km/h 98 % 0.3 mm
15:27 4.2 °C 4.0 °C 1024.9 hPa Calm     98 % 0.3 mm
15:32 4.2 °C 4.0 °C 1024.9 hPa Calm     98 % 0.0 mm
15:37 4.3 °C 4.0 °C 1024.9 hPa Calm     98 % 0.0 mm
15:42 4.3 °C 4.0 °C 1024.9 hPa Calm     98 % 0.0 mm
15:47 4.3 °C 4.0 °C 1024.9 hPa Calm   1.8 km/h 98 % 0.0 mm
15:52 4.3 °C 4.0 °C 1024.9 hPa Calm   2.1 km/h 98 % 0.0 mm
15:57 4.3 °C 4.0 °C 1024.9 hPa Calm   2.1 km/h 98 % 0.0 mm
16:02 4.3 °C 4.0 °C 1024.9 hPa Calm     98 % 0.0 mm
16:07 4.4 °C 4.0 °C 1024.9 hPa Calm   4.0 km/h 98 % 0.0 mm
16:12 4.4 °C 4.0 °C 1024.9 hPa Calm   4.0 km/h 98 % 0.3 mm
16:17 4.4 °C 4.0 °C 1024.9 hPa Calm   1.4 km/h 98 % 0.3 mm
16:22 4.3 °C 4.0 °C 1024.9 hPa Calm   2.1 km/h 98 % 0.3 mm
16:27 4.3 °C 4.0 °C 1024.9 hPa South 2.1 km/h 2.1 km/h 98 % 0.3 mm
16:32 4.3 °C 4.0 °C 1024.9 hPa Calm   2.1 km/h 98 % 0.3 mm
16:37 4.3 °C 4.0 °C 1024.9 hPa Calm     98 % 0.3 mm
16:42 4.4 °C 4.0 °C 1023.9 hPa Calm     98 % 0.3 mm
16:47 4.4 °C 4.0 °C 1023.9 hPa Calm     98 % 0.3 mm
16:52 4.4 °C 4.0 °C 1023.9 hPa Calm     98 % 0.3 mm
16:57 4.4 °C 4.0 °C 1024.9 hPa Calm     98 % 0.3 mm
17:02 4.5 °C 5.0 °C 1024.9 hPa Calm     98 % 0.3 mm
17:07 4.5 °C 5.0 °C 1024.9 hPa Calm     98 % 0.3 mm
17:13 4.6 °C 5.0 °C 1023.9 hPa Calm     98 % 0.0 mm
17:18 4.6 °C 5.0 °C 1023.9 hPa Calm     98 % 0.0 mm
17:23 4.6 °C 5.0 °C 1023.9 hPa Calm     98 % 0.0 mm
17:28 4.6 °C 5.0 °C 1024.9 hPa Calm     98 % 0.0 mm
17:33 4.6 °C 5.0 °C 1024.9 hPa Calm     98 % 0.0 mm
17:38 4.6 °C 5.0 °C 1024.9 hPa Calm     98 % 0.0 mm
17:43 4.6 °C 5.0 °C 1023.9 hPa Calm     98 % 0.0 mm
17:48 4.7 °C 5.0 °C 1023.9 hPa Calm   368.5 km/h 98 % 0.0 mm
17:53 4.7 °C 5.0 °C 1023.9 hPa Calm   368.5 km/h 98 % 0.0 mm
17:58 4.7 °C 5.0 °C 1024.9 hPa Calm     98 % 0.0 mm
18:03 4.7 °C 5.0 °C 1024.9 hPa Calm     98 % 0.3 mm
18:08 4.8 °C 5.0 °C 1024.9 hPa Calm     98 % 0.3 mm
18:13 4.8 °C 5.0 °C 1024.9 hPa Calm     98 % 0.3 mm
18:18 4.9 °C 5.0 °C 1024.9 hPa Calm     98 % 0.3 mm
18:23 5.0 °C 5.0 °C 1024.9 hPa Calm     98 % 0.3 mm
18:28 5.0 °C 5.0 °C 1024.9 hPa Calm     98 % 0.3 mm
18:33 5.0 °C 5.0 °C 1024.9 hPa Calm     98 % 0.3 mm
18:38 5.0 °C 5.0 °C 1024.9 hPa Calm     98 % 0.3 mm
18:44 5.0 °C 5.0 °C 1024.9 hPa Calm     98 % 0.3 mm
18:49 5.0 °C 5.0 °C 1024.9 hPa Calm     98 % 0.3 mm
18:54 5.0 °C 5.0 °C 1024.9 hPa Calm     98 % 0.3 mm
18:59 5.0 °C 5.0 °C 1024.9 hPa Calm     98 % 0.3 mm
19:04 5.1 °C 5.0 °C 1024.9 hPa Calm     98 % 0.0 mm
19:09 5.3 °C 6.0 °C 1024.9 hPa Calm     98 % 0.0 mm
19:14 5.3 °C 6.0 °C 1026.0 hPa Calm     98 % 0.3 mm
19:19 5.4 °C 6.0 °C 1026.0 hPa Calm     98 % 0.3 mm
19:24 5.6 °C 6.0 °C 1026.0 hPa Calm     98 % 0.3 mm
19:29 5.6 °C 6.0 °C 1026.0 hPa Calm     98 % 0.3 mm
19:34 5.7 °C 6.0 °C 1026.0 hPa Calm   5.0 km/h 98 % 0.3 mm
19:39 5.7 °C 6.0 °C 1026.0 hPa WSW 6.4 km/h 6.4 km/h 98 % 0.3 mm
19:44 5.8 °C 6.0 °C 1026.0 hPa Calm   6.4 km/h 98 % 0.3 mm
19:49 5.8 °C 6.0 °C 1026.0 hPa Calm     98 % 0.3 mm
19:54 5.8 °C 6.0 °C 1026.0 hPa Calm     98 % 0.3 mm
19:59 5.9 °C 6.0 °C 1026.0 hPa Calm     98 % 0.3 mm
20:04 5.9 °C 6.0 °C 1026.0 hPa Calm     98 % 0.3 mm
20:09 5.9 °C 6.0 °C 1026.0 hPa West 1.8 km/h 8.7 km/h 98 % 0.3 mm
20:14 5.9 °C 6.0 °C 1026.0 hPa Calm   8.7 km/h 98 % 0.3 mm
20:19 5.8 °C 6.0 °C 1026.0 hPa Calm   7.9 km/h 98 % 0.3 mm
20:29 5.9 °C 6.0 °C 1026.0 hPa West 5.5 km/h 9.0 km/h 98 % 0.3 mm
20:34 5.9 °C 6.0 °C 1026.0 hPa Calm   9.0 km/h 98 % 0.3 mm
20:39 5.9 °C 6.0 °C 1026.0 hPa Calm   9.0 km/h 98 % 0.3 mm
20:45 5.9 °C 6.0 °C 1026.0 hPa Calm   9.0 km/h 98 % 0.3 mm
20:50 5.9 °C 6.0 °C 1026.0 hPa Calm   6.9 km/h 98 % 0.3 mm
20:55 5.9 °C 6.0 °C 1026.0 hPa Calm   5.8 km/h 98 % 0.3 mm
21:00 5.9 °C 6.0 °C 1027.0 hPa Calm   5.8 km/h 98 % 0.3 mm
21:05 5.9 °C 6.0 °C 1027.0 hPa Calm   4.0 km/h 98 % 0.3 mm
21:10 5.9 °C 6.0 °C 1027.0 hPa Calm     98 % 0.3 mm
21:15 5.9 °C 6.0 °C 1027.0 hPa Calm   6.9 km/h 98 % 0.0 mm
21:20 5.9 °C 6.0 °C 1027.0 hPa Calm   6.9 km/h 98 % 0.0 mm
21:25 5.9 °C 6.0 °C 1027.0 hPa Calm   6.4 km/h 98 % 0.0 mm
21:30 5.9 °C 6.0 °C 1027.0 hPa Calm   6.4 km/h 98 % 0.0 mm
21:35 5.9 °C 6.0 °C 1027.0 hPa Calm     98 % 0.0 mm
21:40 5.9 °C 6.0 °C 1027.0 hPa Calm     98 % 0.3 mm
21:41 5.9 °C 6.0 °C 1027.0 hPa Calm     98 % 0.3 mm
21:46 5.9 °C 6.0 °C 1027.0 hPa Calm   2.6 km/h 98 % 0.3 mm
21:51 6.0 °C 6.0 °C 1027.0 hPa Calm   2.6 km/h 98 % 0.3 mm
22:01 5.9 °C 6.0 °C 1027.0 hPa Calm     98 % 0.3 mm
22:06 5.9 °C 6.0 °C 1027.0 hPa Calm     98 % 0.3 mm
22:11 5.9 °C 6.0 °C 1027.0 hPa Calm   3.5 km/h 98 % 0.3 mm
22:21 5.9 °C 6.0 °C 1027.0 hPa Calm   4.3 km/h 98 % 0.3 mm
22:26 5.8 °C 6.0 °C 1026.0 hPa Calm     98 % 0.3 mm
22:31 5.9 °C 6.0 °C 1026.0 hPa Calm     98 % 0.3 mm
22:36 5.9 °C 6.0 °C 1026.0 hPa Calm     98 % 0.3 mm
22:41 5.8 °C 6.0 °C 1027.0 hPa Calm     98 % 0.0 mm
22:46 5.8 °C 6.0 °C 1027.0 hPa Calm     98 % 0.0 mm
22:51 5.8 °C 6.0 °C 1027.0 hPa Calm     98 % 0.0 mm
22:56 5.8 °C 6.0 °C 1027.0 hPa Calm     98 % 0.0 mm
23:01 5.8 °C 6.0 °C 1027.0 hPa Calm     98 % 0.0 mm
23:06 5.8 °C 6.0 °C 1027.0 hPa Calm     98 % 0.0 mm
23:11 5.8 °C 6.0 °C 1027.0 hPa Calm     98 % 0.0 mm
23:16 5.8 °C 6.0 °C 1027.0 hPa Calm     98 % 0.0 mm
23:17 5.8 °C 6.0 °C 1027.0 hPa Calm     98 % 0.0 mm
23:22 5.9 °C 6.0 °C 1027.0 hPa NE 1.4 km/h 9.3 km/h 98 % 0.3 mm
23:33 6.0 °C 6.0 °C 1027.0 hPa Calm     98 % 0.3 mm
23:38 6.1 °C 6.0 °C 1027.0 hPa Calm     98 % 0.3 mm
23:43 6.2 °C 6.0 °C 1027.0 hPa Calm     98 % 0.3 mm
23:48 6.3 °C 6.0 °C 1027.0 hPa Calm     98 % 0.8 mm
23:53 6.4 °C 6.0 °C 1027.0 hPa Calm     98 % 0.8 mm
23:58 6.5 °C 7.0 °C 1028.0 hPa Calm     98 % 0.8 mm
Le Gheer Warneton
Courtoisie de Weather Underground - 2 mb

Mise a jour : 16-12-17 15:55:11
Généré par Cumulus 1.9.4 (1099)